Location: Mascot Post Office (historical)
(40.2645°N, 99.5462°W)
Time: 02:34:05
(UTC+00:00)

TIMED - Pass Details

Date: 14 July 2020
Orbit: 602 x 605 km, 74.1° (Epoch: 14 August)

Event Time Altitude Azimuth Distance (km) Brightness Sun altitude
Exits shadow 03:47:37 17° 185° (S) 1,545 6.2 -15.7°
Maximum altitude 03:50:54 65° 106° (ESE) 667 4.4 -16.2°
Drops below altitude 10° 03:55:13 10° 25° (NNE) 1,956 7.4 -16.7°
Sets 03:57:28 0° 23° (NNE) 2,864 8.4 -17.0°
